Back to catalog

STARLINK-36141

AliveCommunicationsVLEO
NORAD 67057·PAYLOAD·🇺🇸 United States

Launched Dec 11, 2025 from Cape Canaveral Space Force Station

Loading…

Next Passes (next 24 hours)

TLE

FreshSource: CelesTrak SupGP

Epoch: Sep 14, 2026, 23:17 UTC

1 67057C 25294AD  26257.97062500  .00027883  00000+0  10098-2 0  2572
2 67057  43.0035  48.9331 0001472 273.3679 292.7318 15.27569590    13

Track STARLINK-36141 in real time with AllMySat

Download on the App Store